Terug naar catalogus

AEROCUBE 7

ActiefWetenschapLEO
NORAD 40966·PAYLOAD·🇺🇸 United States

Gelanceerd Oct 8, 2015 vanaf Vandenberg Space Force Base

Loading…

Volgende Passages (komende 24 uur)

TLE

VersSource: Space-Track

Epoch: Sep 14, 2026, 04:59 UTC

1 40966U 15058C   26257.20791927  .00001928  00000-0  15856-3 0  9991
2 40966  64.7629 325.8399 0127309  27.7409 333.0419 14.96301283379279

Volg AEROCUBE 7 in realtime met AllMySat

Download on the App Store